RPA3635 KIAD-KIND

Flight info

Callsign RPA3635
Flight time 1h 23m
Altitude 28000
Route BUNZZ3 RAMAY Q72 HACKS PLASH SNKPT2
Aircraft E170/M-SDE3GILORVW/S

Departure

Time 2026-05-07 17:15
Airport Washington Dulles International Airport (KIAD)

Arrival

Time 2026-05-07 18:38
Airport Indianapolis International Airport (KIND)
Time Latitude Longitude Altitude Speed Heading
2026-05-07 16:38 38.94817 -77.44927 290 ft 0 kts 16°
2026-05-07 17:04 38.94816 -77.44927 290 ft 2 kts 16°
2026-05-07 17:05 38.94792 -77.44936 285 ft 4 kts 16°
2026-05-07 17:05 38.94766 -77.44946 293 ft 4 kts 14°
2026-05-07 17:05 38.94740 -77.44951 292 ft 4 kts 355°
2026-05-07 17:05 38.94727 -77.44939 293 ft 1 kts 271°
2026-05-07 17:09 38.94727 -77.44956 292 ft 5 kts 272°
2026-05-07 17:09 38.94729 -77.45032 290 ft 12 kts 272°
2026-05-07 17:09 38.94731 -77.45147 290 ft 14 kts 269°
2026-05-07 17:09 38.94730 -77.45281 290 ft 16 kts 269°
2026-05-07 17:10 38.94733 -77.45431 290 ft 17 kts 271°
2026-05-07 17:10 38.94732 -77.45562 290 ft 13 kts 255°
2026-05-07 17:10 38.94658 -77.45607 291 ft 13 kts 176°
2026-05-07 17:10 38.94562 -77.45609 292 ft 15 kts 180°
2026-05-07 17:11 38.94455 -77.45607 291 ft 16 kts 179°
2026-05-07 17:11 38.94339 -77.45607 290 ft 17 kts 179°
2026-05-07 17:11 38.94212 -77.45603 293 ft 19 kts 177°
2026-05-07 17:11 38.94080 -77.45616 291 ft 19 kts 178°
2026-05-07 17:12 38.94013 -77.45640 290 ft 8 kts 240°
2026-05-07 17:12 38.93993 -77.45719 290 ft 8 kts 215°
2026-05-07 17:12 38.93937 -77.45733 293 ft 9 kts 177°
2026-05-07 17:12 38.93864 -77.45729 290 ft 12 kts 178°
2026-05-07 17:13 38.93778 -77.45729 292 ft 13 kts 186°
2026-05-07 17:13 38.93683 -77.45753 292 ft 15 kts 200°
2026-05-07 17:13 38.93581 -77.45801 291 ft 16 kts 200°
2026-05-07 17:13 38.93470 -77.45851 292 ft 11 kts 202°
2026-05-07 17:14 38.93449 -77.45882 292 ft 2 kts 284°
2026-05-07 17:14 38.93451 -77.45891 292 ft 6 kts 284°
2026-05-07 17:14 38.93559 -77.46263 295 ft 82 kts 291°
2026-05-07 17:14 38.93855 -77.47263 299 ft 155 kts 291°
2026-05-07 17:15 38.94242 -77.48636 927 ft 164 kts 290°
2026-05-07 17:15 38.94513 -77.50246 963 ft 215 kts 269°
2026-05-07 17:15 38.94353 -77.52126 2276 ft 208 kts 263°
2026-05-07 17:15 38.94050 -77.54110 2992 ft 256 kts 256°
2026-05-07 17:16 38.93432 -77.56568 3079 ft 319 kts 253°
2026-05-07 17:16 38.92729 -77.59202 3120 ft 302 kts 252°
2026-05-07 17:16 38.92064 -77.61665 3068 ft 282 kts 253°
2026-05-07 17:16 38.91452 -77.63976 3048 ft 266 kts 252°
2026-05-07 17:17 38.90856 -77.66198 3188 ft 264 kts 252°
2026-05-07 17:17 38.90284 -77.68396 4218 ft 256 kts 256°
2026-05-07 17:17 38.89821 -77.70585 5141 ft 252 kts 258°
2026-05-07 17:17 38.89430 -77.72769 5959 ft 250 kts 260°
2026-05-07 17:18 38.89150 -77.74968 6703 ft 249 kts 262°
2026-05-07 17:18 38.88914 -77.77167 7443 ft 248 kts 262°
2026-05-07 17:18 38.88679 -77.79358 8151 ft 248 kts 261°
2026-05-07 17:18 38.88444 -77.81552 8860 ft 247 kts 261°
2026-05-07 17:19 38.88211 -77.83739 9584 ft 247 kts 260°
2026-05-07 17:19 38.87977 -77.85930 10180 ft 252 kts 260°
2026-05-07 17:19 38.87729 -77.88234 10427 ft 268 kts 260°
2026-05-07 17:19 38.87723 -77.90621 10924 ft 275 kts 274°
2026-05-07 17:20 38.88091 -77.93051 11564 ft 279 kts 278°
2026-05-07 17:20 38.88570 -77.95475 12247 ft 280 kts 280°
2026-05-07 17:20 38.89100 -77.97898 12924 ft 283 kts 281°
2026-05-07 17:20 38.89618 -78.00124 13550 ft 286 kts 282°
2026-05-07 17:21 38.90297 -78.02554 14191 ft 289 kts 285°
2026-05-07 17:21 38.91025 -78.04960 14875 ft 289 kts 285°
2026-05-07 17:21 38.91751 -78.07377 15578 ft 290 kts 285°
2026-05-07 17:21 38.92485 -78.09798 16263 ft 292 kts 284°
2026-05-07 17:22 38.93223 -78.12241 16931 ft 293 kts 284°
2026-05-07 17:22 38.93954 -78.14654 17632 ft 294 kts 284°
2026-05-07 17:22 38.94689 -78.17115 18323 ft 295 kts 283°
2026-05-07 17:22 38.95252 -78.19624 18956 ft 292 kts 277°
2026-05-07 17:23 38.95692 -78.22158 19685 ft 290 kts 275°
2026-05-07 17:23 38.96087 -78.24696 20421 ft 289 kts 274°
2026-05-07 17:23 38.96409 -78.27236 21123 ft 287 kts 270°
2026-05-07 17:23 38.96603 -78.29786 21784 ft 287 kts 268°
2026-05-07 17:24 38.96776 -78.32343 22453 ft 286 kts 268°
2026-05-07 17:24 38.96938 -78.34891 23117 ft 286 kts 267°
2026-05-07 17:24 38.97046 -78.36580 23544 ft 286 kts 267°
2026-05-07 17:24 38.97206 -78.39138 24012 ft 288 kts 267°
2026-05-07 17:25 38.97371 -78.41702 24557 ft 288 kts 267°
2026-05-07 17:25 38.97534 -78.44275 25084 ft 289 kts 267°
2026-05-07 17:25 38.97697 -78.46860 25604 ft 290 kts 267°
2026-05-07 17:25 38.97914 -78.50294 26239 ft 292 kts 266°
2026-05-07 17:26 38.98026 -78.52050 26590 ft 293 kts 266°
2026-05-07 17:26 38.98190 -78.54664 27057 ft 294 kts 266°
2026-05-07 17:26 38.98351 -78.57260 27490 ft 295 kts 266°
2026-05-07 17:26 38.98516 -78.59885 27812 ft 290 kts 266°
2026-05-07 17:27 38.98679 -78.62440 27919 ft 289 kts 266°
2026-05-07 17:27 38.98831 -78.65057 27945 ft 296 kts 266°
2026-05-07 17:27 38.98997 -78.67707 27946 ft 296 kts 266°
2026-05-07 17:27 38.99162 -78.70345 27992 ft 295 kts 266°
2026-05-07 17:28 38.99323 -78.72974 27961 ft 294 kts 266°
2026-05-07 17:28 38.99482 -78.75599 27948 ft 294 kts 266°
2026-05-07 17:28 38.99640 -78.78192 27959 ft 294 kts 266°
2026-05-07 17:28 38.99797 -78.80814 27934 ft 294 kts 266°
2026-05-07 17:29 38.99956 -78.83436 27938 ft 295 kts 266°
2026-05-07 17:29 39.00115 -78.86056 27914 ft 294 kts 266°
2026-05-07 17:29 39.00274 -78.88684 27905 ft 293 kts 266°
2026-05-07 17:29 39.00426 -78.91301 27937 ft 295 kts 266°
2026-05-07 17:30 39.00585 -78.93929 27936 ft 294 kts 266°
2026-05-07 17:30 39.00740 -78.96544 27916 ft 292 kts 266°
2026-05-07 17:30 39.00894 -78.99152 27927 ft 294 kts 266°
2026-05-07 17:30 39.01046 -79.01776 27945 ft 295 kts 266°
2026-05-07 17:31 39.01204 -79.04403 27913 ft 293 kts 266°
2026-05-07 17:31 39.01353 -79.07019 27986 ft 292 kts 266°
2026-05-07 17:31 39.01503 -79.09611 27933 ft 291 kts 266°
2026-05-07 17:31 39.01653 -79.12215 27957 ft 294 kts 266°
2026-05-07 17:32 39.01780 -79.14826 27944 ft 293 kts 266°
2026-05-07 17:32 39.01950 -79.17423 27934 ft 293 kts 267°
2026-05-07 17:32 39.02121 -79.19999 27940 ft 293 kts 267°
2026-05-07 17:32 39.02296 -79.22599 27956 ft 292 kts 266°
2026-05-07 17:33 39.02463 -79.25185 27985 ft 293 kts 266°
2026-05-07 17:33 39.02635 -79.27794 27961 ft 292 kts 267°
2026-05-07 17:33 39.02806 -79.30396 27960 ft 292 kts 267°
2026-05-07 17:33 39.02976 -79.33009 27953 ft 293 kts 267°
2026-05-07 17:34 39.03146 -79.35627 27945 ft 293 kts 267°
2026-05-07 17:34 39.03315 -79.38240 27940 ft 293 kts 267°
2026-05-07 17:34 39.03486 -79.40862 27969 ft 294 kts 267°
2026-05-07 17:34 39.03654 -79.43481 27992 ft 294 kts 267°
2026-05-07 17:35 39.03819 -79.46110 27965 ft 294 kts 267°
2026-05-07 17:35 39.03988 -79.48734 27936 ft 295 kts 267°
2026-05-07 17:35 39.04155 -79.51355 27966 ft 294 kts 267°
2026-05-07 17:35 39.04318 -79.53947 27982 ft 294 kts 267°
2026-05-07 17:36 39.04484 -79.56612 27943 ft 295 kts 267°
2026-05-07 17:36 39.04649 -79.59205 27970 ft 295 kts 267°
2026-05-07 17:36 39.04811 -79.61821 27967 ft 296 kts 267°
2026-05-07 17:36 39.04975 -79.64449 27987 ft 295 kts 267°
2026-05-07 17:37 39.05140 -79.67075 28008 ft 294 kts 267°
2026-05-07 17:37 39.05296 -79.69700 27962 ft 294 kts 267°
2026-05-07 17:37 39.05463 -79.72330 27985 ft 294 kts 267°
2026-05-07 17:37 39.05627 -79.74945 27961 ft 292 kts 266°
2026-05-07 17:38 39.05785 -79.77561 27986 ft 295 kts 266°
2026-05-07 17:38 39.05943 -79.80190 28030 ft 296 kts 267°
2026-05-07 17:38 39.06104 -79.82836 28003 ft 297 kts 267°
2026-05-07 17:38 39.06267 -79.85480 27974 ft 296 kts 267°
2026-05-07 17:39 39.06412 -79.88088 27979 ft 296 kts 267°
2026-05-07 17:39 39.06579 -79.90745 27988 ft 302 kts 267°
2026-05-07 17:39 39.06747 -79.93506 28002 ft 316 kts 268°
2026-05-07 17:39 39.06920 -79.96382 28012 ft 328 kts 268°
2026-05-07 17:40 39.07097 -79.99302 27995 ft 325 kts 268°
2026-05-07 17:40 39.07266 -80.02201 27976 ft 324 kts 267°
2026-05-07 17:40 39.07435 -80.05093 27964 ft 324 kts 268°
2026-05-07 17:40 39.07604 -80.07989 27969 ft 324 kts 268°
2026-05-07 17:41 39.07772 -80.10884 27985 ft 325 kts 268°
2026-05-07 17:41 39.07941 -80.13778 27968 ft 325 kts 268°
2026-05-07 17:41 39.08271 -80.19598 27996 ft 332 kts 268°
2026-05-07 17:42 39.08446 -80.22566 27975 ft 331 kts 268°
2026-05-07 17:42 39.08622 -80.25512 27962 ft 330 kts 268°
2026-05-07 17:42 39.08785 -80.28470 27949 ft 331 kts 268°
2026-05-07 17:42 39.08948 -80.31419 27963 ft 330 kts 268°
2026-05-07 17:43 39.09105 -80.34365 27976 ft 330 kts 268°
2026-05-07 17:43 39.09267 -80.37319 27947 ft 331 kts 268°
2026-05-07 17:43 39.09426 -80.40233 27958 ft 331 kts 268°
2026-05-07 17:43 39.09585 -80.43186 27965 ft 330 kts 268°
2026-05-07 17:44 39.09742 -80.46141 27956 ft 331 kts 268°
2026-05-07 17:44 39.09899 -80.49090 27962 ft 330 kts 268°
2026-05-07 17:44 39.10055 -80.52045 27963 ft 330 kts 268°
2026-05-07 17:44 39.10208 -80.54991 27973 ft 332 kts 268°
2026-05-07 17:45 39.10363 -80.57991 27965 ft 336 kts 269°
2026-05-07 17:45 39.10524 -80.60970 27952 ft 333 kts 268°
2026-05-07 17:45 39.10681 -80.63947 27952 ft 333 kts 268°
2026-05-07 17:45 39.10835 -80.66942 27965 ft 334 kts 269°
2026-05-07 17:46 39.10990 -80.69922 27961 ft 333 kts 268°
2026-05-07 17:46 39.11139 -80.72907 27962 ft 334 kts 268°
2026-05-07 17:46 39.11290 -80.75849 27963 ft 333 kts 268°
2026-05-07 17:46 39.11439 -80.78832 27960 ft 333 kts 268°
2026-05-07 17:47 39.11590 -80.81815 27969 ft 334 kts 268°
2026-05-07 17:47 39.11741 -80.84795 27965 ft 333 kts 268°
2026-05-07 17:47 39.11891 -80.87781 27966 ft 334 kts 268°
2026-05-07 17:47 39.12040 -80.90765 27965 ft 334 kts 268°
2026-05-07 17:48 39.12182 -80.93787 27978 ft 340 kts 269°
2026-05-07 17:48 39.12337 -80.96814 27966 ft 338 kts 269°
2026-05-07 17:48 39.12485 -80.99840 27963 ft 338 kts 269°
2026-05-07 17:48 39.12632 -81.02864 27975 ft 338 kts 269°
2026-05-07 17:49 39.12921 -81.05885 27971 ft 343 kts 275°
2026-05-07 17:49 39.13457 -81.08892 27974 ft 345 kts 277°
2026-05-07 17:49 39.14051 -81.11880 27949 ft 344 kts 277°
2026-05-07 17:49 39.14659 -81.14834 27972 ft 345 kts 278°
2026-05-07 17:50 39.15390 -81.17796 27988 ft 349 kts 281°
2026-05-07 17:50 39.16209 -81.20746 27983 ft 350 kts 281°
2026-05-07 17:50 39.17044 -81.23697 27984 ft 349 kts 282°
2026-05-07 17:50 39.17883 -81.26640 27988 ft 350 kts 282°
2026-05-07 17:51 39.19570 -81.32579 27995 ft 355 kts 283°
2026-05-07 17:51 39.20420 -81.35561 27989 ft 354 kts 283°
2026-05-07 17:51 39.21264 -81.38542 27992 ft 354 kts 283°
2026-05-07 17:52 39.22955 -81.44522 28000 ft 355 kts 283°
2026-05-07 17:52 39.23788 -81.47477 27994 ft 354 kts 283°
2026-05-07 17:52 39.24631 -81.50468 28003 ft 354 kts 282°
2026-05-07 17:53 39.26316 -81.56458 27984 ft 354 kts 283°
2026-05-07 17:53 39.27156 -81.59445 27979 ft 354 kts 282°
2026-05-07 17:53 39.27996 -81.62447 28036 ft 356 kts 283°
2026-05-07 17:54 39.29709 -81.68561 28004 ft 362 kts 284°
2026-05-07 17:54 39.30566 -81.71616 27984 ft 362 kts 284°
2026-05-07 17:54 39.31422 -81.74681 27983 ft 362 kts 284°
2026-05-07 17:55 39.32264 -81.77701 27991 ft 363 kts 284°
2026-05-07 17:55 39.33119 -81.80774 27990 ft 363 kts 284°
2026-05-07 17:55 39.33972 -81.83838 27988 ft 362 kts 284°
2026-05-07 17:55 39.34825 -81.86903 27989 ft 362 kts 284°
2026-05-07 17:56 39.35677 -81.89978 27984 ft 362 kts 284°
2026-05-07 17:56 39.36528 -81.93046 27992 ft 362 kts 284°
2026-05-07 17:56 39.38225 -81.99180 27991 ft 362 kts 284°
2026-05-07 17:57 39.39062 -82.02204 27972 ft 361 kts 284°
2026-05-07 17:57 39.39633 -82.04275 27983 ft 363 kts 284°
2026-05-07 17:57 39.41602 -82.11417 27987 ft 362 kts 284°
2026-05-07 17:58 39.42446 -82.14487 27998 ft 362 kts 284°
2026-05-07 17:58 39.43291 -82.17560 27997 ft 362 kts 284°
2026-05-07 17:58 39.44135 -82.20640 27998 ft 363 kts 284°
2026-05-07 17:58 39.44978 -82.23717 27983 ft 362 kts 284°
2026-05-07 17:59 39.45818 -82.26785 27996 ft 363 kts 284°
2026-05-07 17:59 39.46658 -82.29862 28000 ft 363 kts 284°
2026-05-07 17:59 39.48341 -82.36027 28002 ft 363 kts 284°
2026-05-07 18:00 39.49179 -82.39106 27999 ft 362 kts 284°
2026-05-07 18:00 39.50018 -82.42196 28008 ft 364 kts 284°
2026-05-07 18:00 39.51687 -82.48333 28001 ft 363 kts 284°
2026-05-07 18:01 39.53363 -82.54519 28019 ft 364 kts 284°
2026-05-07 18:01 39.55033 -82.60704 28019 ft 364 kts 284°
2026-05-07 18:02 39.57532 -82.69980 28004 ft 363 kts 284°
2026-05-07 18:03 39.59192 -82.76160 28016 ft 363 kts 284°
2026-05-07 18:03 39.60836 -82.82295 28009 ft 358 kts 284°
2026-05-07 18:04 39.62471 -82.88417 28024 ft 358 kts 284°
2026-05-07 18:04 39.64103 -82.94535 28014 ft 358 kts 284°
2026-05-07 18:05 39.65729 -83.00649 28018 ft 358 kts 284°
2026-05-07 18:05 39.67341 -83.06726 28017 ft 358 kts 284°
2026-05-07 18:06 39.68963 -83.12854 28017 ft 358 kts 284°
2026-05-07 18:06 39.70573 -83.18955 28027 ft 355 kts 284°
2026-05-07 18:07 39.72174 -83.25030 28035 ft 356 kts 284°
2026-05-07 18:07 39.73773 -83.31115 28035 ft 356 kts 284°
2026-05-07 18:08 39.75367 -83.37198 28027 ft 355 kts 284°
2026-05-07 18:08 39.76957 -83.43281 28021 ft 355 kts 284°
2026-05-07 18:09 39.78545 -83.49369 28037 ft 355 kts 284°
2026-05-07 18:09 39.80126 -83.55456 28032 ft 355 kts 284°
2026-05-07 18:10 39.81696 -83.61497 28039 ft 355 kts 284°
2026-05-07 18:10 39.83273 -83.67588 28037 ft 355 kts 284°
2026-05-07 18:11 39.84845 -83.73677 28039 ft 355 kts 284°
2026-05-07 18:11 39.86146 -83.78728 28027 ft 355 kts 284°
2026-05-07 18:12 39.87717 -83.84837 28054 ft 354 kts 284°
2026-05-07 18:12 39.89277 -83.90921 28029 ft 354 kts 284°
2026-05-07 18:13 39.90829 -83.96991 28027 ft 353 kts 284°
2026-05-07 18:13 39.92377 -84.03056 28030 ft 353 kts 284°
2026-05-07 18:14 39.93920 -84.09120 28043 ft 352 kts 284°
2026-05-07 18:14 39.95460 -84.15184 28054 ft 352 kts 284°
2026-05-07 18:15 39.96988 -84.21218 28040 ft 352 kts 284°
2026-05-07 18:15 39.98512 -84.27250 28048 ft 352 kts 284°
2026-05-07 18:16 40.00036 -84.33300 28044 ft 350 kts 284°
2026-05-07 18:16 40.02198 -84.39061 28046 ft 360 kts 296°
2026-05-07 18:17 40.05026 -84.44480 28037 ft 361 kts 297°
2026-05-07 18:17 40.08166 -84.49662 28042 ft 365 kts 302°
2026-05-07 18:18 40.11440 -84.54697 28034 ft 365 kts 302°
2026-05-07 18:18 40.14128 -84.60147 28063 ft 350 kts 285°
2026-05-07 18:19 40.16425 -84.65798 27334 ft 354 kts 295°
2026-05-07 18:19 40.17456 -84.68656 26499 ft 342 kts 284°
2026-05-07 18:19 40.17935 -84.71649 25684 ft 333 kts 273°
2026-05-07 18:19 40.17887 -84.74653 24894 ft 328 kts 267°
2026-05-07 18:20 40.18213 -84.77587 24074 ft 332 kts 286°
2026-05-07 18:20 40.19254 -84.80293 23273 ft 333 kts 293°
2026-05-07 18:20 40.20447 -84.82888 22382 ft 332 kts 295°
2026-05-07 18:20 40.21501 -84.85485 21496 ft 322 kts 283°
2026-05-07 18:21 40.21957 -84.88320 20645 ft 317 kts 276°
2026-05-07 18:21 40.22102 -84.91180 19811 ft 314 kts 269°
2026-05-07 18:21 40.22080 -84.94037 19020 ft 313 kts 268°
2026-05-07 18:21 40.22022 -84.96878 18248 ft 312 kts 268°
2026-05-07 18:22 40.22063 -84.99706 17393 ft 311 kts 271°
2026-05-07 18:22 40.22134 -85.01621 16838 ft 310 kts 272°
2026-05-07 18:22 40.22289 -85.05332 16236 ft 313 kts 273°
2026-05-07 18:22 40.22413 -85.08177 16116 ft 310 kts 273°
2026-05-07 18:23 40.22537 -85.10979 16038 ft 309 kts 273°
2026-05-07 18:23 40.22658 -85.13796 15998 ft 309 kts 273°
2026-05-07 18:23 40.22778 -85.16606 15984 ft 309 kts 273°
2026-05-07 18:23 40.22896 -85.19415 15975 ft 310 kts 273°
2026-05-07 18:24 40.23015 -85.22232 15982 ft 310 kts 273°
2026-05-07 18:24 40.23133 -85.25044 15985 ft 309 kts 273°
2026-05-07 18:24 40.23249 -85.27832 15956 ft 305 kts 273°
2026-05-07 18:24 40.23361 -85.30546 15824 ft 293 kts 273°
2026-05-07 18:25 40.23468 -85.33227 15114 ft 297 kts 273°
2026-05-07 18:25 40.23578 -85.35924 14562 ft 296 kts 274°
2026-05-07 18:25 40.23337 -85.38605 14179 ft 307 kts 256°
2026-05-07 18:25 40.22631 -85.41187 14089 ft 302 kts 252°
2026-05-07 18:26 40.21809 -85.43712 14034 ft 304 kts 248°
2026-05-07 18:26 40.20808 -85.46162 13848 ft 306 kts 246°
2026-05-07 18:26 40.19771 -85.48597 13505 ft 306 kts 245°
2026-05-07 18:26 40.18723 -85.51025 13142 ft 307 kts 245°
2026-05-07 18:27 40.17668 -85.53453 12792 ft 306 kts 245°
2026-05-07 18:27 40.16627 -85.55884 12435 ft 306 kts 245°
2026-05-07 18:27 40.15569 -85.58290 12142 ft 306 kts 244°
2026-05-07 18:27 40.14520 -85.60712 12048 ft 305 kts 245°
2026-05-07 18:28 40.13490 -85.63133 12014 ft 305 kts 245°
2026-05-07 18:28 40.12460 -85.65553 12007 ft 305 kts 245°
2026-05-07 18:28 40.11427 -85.67974 12003 ft 305 kts 245°
2026-05-07 18:28 40.10394 -85.70393 11981 ft 305 kts 245°
2026-05-07 18:29 40.09359 -85.72812 11994 ft 305 kts 245°
2026-05-07 18:29 40.08324 -85.75228 11827 ft 304 kts 245°
2026-05-07 18:29 40.07324 -85.77649 11269 ft 300 kts 246°
2026-05-07 18:29 40.06321 -85.79977 11045 ft 288 kts 242°
2026-05-07 18:30 40.05296 -85.82129 10815 ft 277 kts 242°
2026-05-07 18:30 40.04262 -85.84227 10449 ft 274 kts 239°
2026-05-07 18:30 40.03165 -85.86261 9981 ft 275 kts 238°
2026-05-07 18:30 40.02060 -85.88292 9475 ft 274 kts 240°
2026-05-07 18:31 40.01082 -85.90406 9071 ft 271 kts 243°
2026-05-07 18:31 40.00148 -85.92527 8611 ft 270 kts 243°
2026-05-07 18:31 39.99138 -85.94591 8196 ft 269 kts 238°
2026-05-07 18:31 39.98020 -85.96555 7719 ft 269 kts 236°
2026-05-07 18:32 39.96855 -85.98452 7318 ft 269 kts 232°
2026-05-07 18:32 39.95553 -86.00214 6887 ft 270 kts 228°
2026-05-07 18:32 39.94221 -86.01936 6497 ft 270 kts 227°
2026-05-07 18:32 39.92881 -86.03644 6110 ft 268 kts 227°
2026-05-07 18:33 39.91573 -86.05315 5703 ft 266 kts 227°
2026-05-07 18:33 39.90248 -86.06990 5348 ft 264 kts 225°
2026-05-07 18:33 39.88932 -86.08646 4921 ft 261 kts 229°
2026-05-07 18:33 39.87661 -86.10332 4473 ft 261 kts 227°
2026-05-07 18:34 39.86364 -86.11963 4144 ft 258 kts 224°
2026-05-07 18:34 39.85043 -86.13621 4079 ft 263 kts 227°
2026-05-07 18:34 39.83720 -86.15242 3831 ft 259 kts 225°
2026-05-07 18:34 39.82450 -86.16872 3519 ft 255 kts 228°
2026-05-07 18:35 39.81217 -86.18505 3193 ft 249 kts 228°
2026-05-07 18:35 39.80017 -86.20046 2834 ft 236 kts 226°
2026-05-07 18:35 39.78875 -86.21482 2531 ft 221 kts 228°
2026-05-07 18:35 39.77838 -86.22846 2274 ft 203 kts 228°
2026-05-07 18:36 39.76864 -86.24089 1977 ft 190 kts 228°
2026-05-07 18:36 39.75958 -86.25250 1686 ft 177 kts 227°
2026-05-07 18:36 39.75122 -86.26320 1478 ft 158 kts 229°
2026-05-07 18:36 39.74374 -86.27298 1250 ft 152 kts 227°
2026-05-07 18:37 39.73577 -86.28333 983 ft 168 kts 227°
2026-05-07 18:37 39.72765 -86.29358 810 ft 157 kts 228°
2026-05-07 18:37 39.72058 -86.30285 777 ft 128 kts 225°
2026-05-07 18:37 39.71560 -86.30904 779 ft 56 kts 216°
2026-05-07 18:38 39.71373 -86.31006 778 ft 8 kts 163°
2026-05-07 18:38 39.71332 -86.30991 778 ft 1 kts 161°
2026-05-07 18:38 39.71317 -86.30974 778 ft 5 kts 129°
2026-05-07 18:38 39.71314 -86.30942 779 ft 6 kts 70°
2026-05-07 18:39 39.71346 -86.30884 779 ft 9 kts 50°
2026-05-07 18:39 39.71396 -86.30821 779 ft 11 kts 44°
2026-05-07 18:39 39.71457 -86.30745 779 ft 13 kts 43°
2026-05-07 18:39 39.71526 -86.30653 779 ft 15 kts 45°
2026-05-07 18:40 39.71605 -86.30553 779 ft 17 kts 43°
2026-05-07 18:40 39.71692 -86.30441 778 ft 18 kts 44°
2026-05-07 18:40 39.71783 -86.30326 778 ft 12 kts 44°
2026-05-07 18:40 39.71849 -86.30245 778 ft 14 kts 43°
2026-05-07 18:41 39.71890 -86.30152 778 ft 11 kts 108°
2026-05-07 18:41 39.71840 -86.30078 779 ft 9 kts 135°
2026-05-07 18:41 39.71830 -86.30065 779 ft 0 kts 135°
2026-05-07 18:41 39.71825 -86.30058 779 ft 3 kts 135°
2026-05-07 18:42 39.71805 -86.30032 779 ft 5 kts 132°
2026-05-07 18:42 39.71793 -86.29980 779 ft 7 kts 82°
2026-05-07 18:42 39.71826 -86.29934 779 ft 8 kts 36°
2026-05-07 18:42 39.71863 -86.29890 779 ft 7 kts 28°
2026-05-07 18:43 39.71908 -86.29850 779 ft 9 kts 40°
2026-05-07 18:43 39.71961 -86.29793 779 ft 11 kts 39°
2026-05-07 18:43 39.72021 -86.29724 779 ft 9 kts 66°
2026-05-07 18:43 39.72001 -86.29646 779 ft 10 kts 129°
2026-05-07 18:44 39.71951 -86.29565 779 ft 13 kts 129°
2026-05-07 18:44 39.71890 -86.29465 779 ft 15 kts 128°
2026-05-07 18:44 39.71815 -86.29352 779 ft 18 kts 139°
2026-05-07 18:44 39.71723 -86.29250 779 ft 14 kts 139°
2026-05-07 18:45 39.71668 -86.29197 779 ft 9 kts 167°
2026-05-07 18:45 39.71631 -86.29236 779 ft 0 kts 274°
2026-05-07 18:45 39.71630 -86.29250 779 ft 3 kts 265°
2026-05-07 18:45 39.71626 -86.29284 779 ft 5 kts 251°
2026-05-07 18:46 39.71621 -86.29302 779 ft 0 kts 250°